200 serials | mixcraft 4.5 build 118 registration code

Date Name Success Rate
2011-09-08 09:58:40 Acoustica Mixcraft v1.10 Build 15 Registration Info by MaBi 60%
2011-09-08 10:56:11 FontLook v3.1 Registration Code 86%
2011-09-08 11:42:43 Nic O'Matic 1.6 Registration Code 50%
2011-09-08 11:42:43 Nic O'Matic v1.6 Registration Code 55%
2011-09-08 12:54:14 TimeSlips 10.5 enterprise - with registration code! 0%
2012-12-13 05:12:00 Registration Code For PDFZilla Giveaway 0%
2012-12-13 05:12:00 Registration code:-826510-16101-266644 71%
2009-10-22 23:48:50 Mixcraft 4.5 Build 118 61%
2009-10-22 23:27:11 Acoustica Mixcraft 3.1 Build 34 57%
2009-10-22 23:27:11 Acoustica Mixcraft V.2.50 Build 52 77%
2011-09-08 09:58:40 Acoustica MixCraft 1.1 (build 15) 0%
2011-09-08 09:58:40 Acoustica Mixcraft v1.10 Build 13 0%
2011-09-08 09:58:40 Acoustica Mixcraft v1.10 Build 15 63%
2011-09-08 09:58:40 Acoustica Mixcraft v1.10 Build 18 100%
2011-09-08 09:58:42 Acoustica Mixcraft v2.0 Build 25 100%
2012-12-11 23:25:33 Acousta MixCraft Build 118 0%
2012-12-11 23:26:42 Acoustica Mixcraft V.5 Build 152 0%
2012-12-11 23:26:41 Acoustica Mixcraft Recording Studio v2.01 Build 38 Final 0%
2009-10-22 23:50:37 Windows® Code Name “Longhorn” Build 4074.idx02.040425-1535 43%
2011-09-08 11:32:32 MimarSinan Visual Split Studio 97 v3.11 build 14 3/4 Source code license $700 0%
2012-12-13 18:15:40 Windows® Code Name “Longhorn” Build 4074.idx02.040425-1535 0%
2011-09-08 10:42:09 DAS Registration 1.5.2 69%
2011-09-08 10:42:09 DAS Registration For CW5 0%
2011-09-08 10:42:09 DAS Registration v1.5.2 0%
2009-10-17 06:27:02 Lazarus Registration DLL V1.0 59%
2009-10-22 23:48:48 MemoriesonTV Registration 0%
2009-10-22 23:49:42 Registration Wizard 40%
2011-09-08 10:06:47 AnetHelpTool v4.02 Registration 60%
2011-09-08 10:22:13 ByeLines Registration 60%
2011-09-08 10:57:42 Ftgate Registration 63%
2011-09-08 11:15:16 Infodex v2.10 Registration 0%
2011-09-08 11:25:08 Lazarus Registration DLL v1.0 0%
2011-09-08 11:27:46 Mac Opener v3.0 Registration 57%
2011-09-08 11:32:59 mIRC v4.5+ Registration 60%
2011-09-08 11:32:59 mIRC v4.52 Registration 60%
2011-09-08 12:37:02 Quant v2.0 Registration 0%
2011-09-08 12:41:14 Registration Suite 1.0 60%
2011-09-08 12:41:14 Registration Suite v1.0 60%
2011-09-08 12:41:14 Registration Wizard Pro 5.01 46%
2011-09-08 12:41:14 Registration Wizard Pro v5.01 60%
2011-09-08 13:18:59 WinHacker 95 v2.02 Registration 57%
2012-12-13 05:12:00 Registration Key : 526EFEF086E09600449E667EA2DAE8E2E6D642BC 83%
2009-10-22 23:27:21 Ardamax Keylogger 2.9 Registration 56%
2009-10-22 23:48:49 Microsoft Registration Hacker - 39%
2009-10-22 23:49:57 SoudForge ALL (No Registration Requiered) 0%
2009-10-22 23:50:26 Valve's Registration Armor Key-Gen 60%
2011-09-08 10:21:42 Browserola v1.01 Temp. Registration 0%
2011-09-08 11:31:51 Microsoft Registration Hacker 0%
2011-09-08 11:31:51 Microsoft Registration Hacker - 0%
2011-09-08 11:31:51 Microsoft Registration HackerMSREGHACK 0%
2011-09-08 11:32:07 Microstation v5.xx.xx & 95 FULL REGISTRATION 48%
2011-09-08 12:34:57 PolyTrans V1.2E Registration Activator CD-Key 62%
2011-09-08 12:34:57 PolyView v2.9b16 Registration 0%
2011-09-08 12:54:09 Time Registration (German) 1.10 0%
2011-09-08 12:59:30 Super Collapse Registration 100%
2011-09-08 13:23:15 Yipe! II for Windows Registration #154 0%
2012-12-13 08:49:53 Softwarenetz Time Registration v1.10 0%
2012-12-13 08:49:56 Softwarenetz Time Registration v1.14 0%
2012-12-13 15:34:10 Valve's Registration Armor Key-Gen 0%
2009-10-22 23:48:17 Internet Download Manager Registration 50%
2011-09-08 10:25:56 Cheyenne Bitware V4.0 Registration Number 60%
2011-09-08 11:31:51 Microsoft Registration Hacker MSREGHACK 80%
2011-09-08 11:31:51 Microsoft Visual Basic 5 registration cd key 72%
2012-12-12 08:07:32 Download avast 5.0.667 Antivirus registration 0%
2012-12-13 05:12:00 Registration key for x-3gp-video-converter-38540 54%
2012-12-13 13:12:40 Total Image Converter Registration Key 57%
2011-09-08 11:30:16 MediaBlaze 98 v1.01 Win95/NT User: delphic Registration 0%
2009-10-22 23:49:02 Norton Internet Security 2005 Registration Guide 0%
2012-12-12 19:40:26 Microsoft Visual Basic 2008 Express Edition Registration key 20%
2009-10-22 23:48:50 Mixcraft 56%
2009-10-22 23:48:50 Mixcraft 1.10.15 0%
2009-10-22 23:48:50 Mixcraft 2.51 0%
2009-10-22 23:48:50 Mixcraft 3 53%
2009-10-22 23:48:50 Mixcraft V3 0%
2009-10-22 23:48:50 Mixcraft V4 0%
2011-09-08 11:33:04 Mixcraft 1.00.11 0%
2011-09-08 11:33:04 Mixcraft 1.00.9 0%
2011-09-08 11:33:04 Mixcraft 1.10.15 0%
2011-09-08 11:33:04 Mixcraft 2.0.28 0%
2011-09-08 11:33:04 Mixcraft 2.01.39 0%
2011-09-08 11:33:04 Mixcraft 2.50.45 0%
2011-09-08 11:33:04 Mixcraft v1.00.9 0%
2012-12-12 20:12:10 Mixcraft 5 15%
2012-12-12 20:12:10 Mixcraft 5.1 20%
2012-12-12 20:12:11 Mixcraft 6 23%
2009-10-17 06:18:15 Acoustica Mixcraft V1.10.18 11%
2009-10-17 06:18:15 Acoustica Mixcraft V2.0.28 18%
2009-10-17 06:18:15 Acoustica Mixcraft V2.01.30 19%
2009-10-17 06:18:15 Acoustica Mixcraft V2.01.31 17%
2009-10-17 06:18:15 Acoustica Mixcraft V2.01.33 10%
2009-10-17 06:18:15 Acoustica Mixcraft V2.01.39 25%
2009-10-17 06:18:15 Acoustica Mixcraft V2.01.40 12%
2009-10-17 06:18:15 Acoustica Mixcraft V2.01.41 21%
2009-10-17 06:18:15 Acoustica Mixcraft V2.50.45 22%
2009-10-17 06:18:15 Acoustica Mixcraft V2.50.48 67%
2009-10-17 06:18:15 Acoustica Mixcraft V2.50.50 23%
2009-10-17 06:18:15 Acoustica Mixcraft V3.0.18 12%
2009-10-22 23:27:11 Acoustica Mixcraft 60%
2009-10-22 23:27:11 Acoustica Mixcraft 1.10.18 0%
2009-10-22 23:27:11 Acoustica Mixcraft 2.0 0%
2009-10-22 23:27:11 Acoustica Mixcraft 2.0.28 0%
2009-10-22 23:27:11 Acoustica Mixcraft 2.01.30 0%
2009-10-22 23:27:11 Acoustica Mixcraft 2.01.33 0%
2009-10-22 23:27:11 Acoustica Mixcraft 2.01.39 0%
2009-10-22 23:27:11 Acoustica Mixcraft 2.01.40 0%
2009-10-22 23:27:11 Acoustica Mixcraft 2.01.41 0%
2009-10-22 23:27:11 Acoustica Mixcraft 2.50.45 67%
2009-10-22 23:27:11 Acoustica Mixcraft 2.50.48 52%
2009-10-22 23:27:11 Acoustica Mixcraft 2.51 60%
2009-10-22 23:27:11 Acoustica Mixcraft V2.50.50 0%
2009-10-22 23:27:11 Acoustica Mixcraft V4 37%
2009-10-22 23:27:11 Acoustica Mixcraft V4.1 0%
2009-10-22 23:27:11 Acoustica Mixcraft V4.5.114 0%
2009-10-22 23:27:11 Acoustica Mixcraft V4.5.116 68%
2009-10-22 23:48:50 Mixcraft All Versions 60%
2011-09-08 09:58:40 Acoustica Mixcraft 1.10.18 0%
2011-09-08 09:58:40 Acoustica Mixcraft 2.0 b25 63%
2011-09-08 09:58:40 Acoustica Mixcraft 2.0.28 0%
2011-09-08 09:58:40 Acoustica Mixcraft 2.0.b25 0%
2011-09-08 09:58:40 Acoustica Mixcraft 2.01 0%
2011-09-08 09:58:40 Acoustica Mixcraft 2.01.33 0%
2011-09-08 09:58:40 Acoustica Mixcraft 2.5 10%
2011-09-08 09:58:40 Acoustica Mixcraft 5.0.130 75%
2011-09-08 09:58:40 Acoustica Mixcraft v1.00 b9 0%
2011-09-08 09:58:40 Acoustica Mixcraft v1.00.15 0%
2011-09-08 09:58:40 Acoustica Mixcraft v1.00.18 0%
2011-09-08 09:58:40 Acoustica Mixcraft v1.00.9 0%
2011-09-08 09:58:40 Acoustica Mixcraft v1.10 0%
2011-09-08 09:58:42 Acoustica Mixcraft v1.10.18 0%
2011-09-08 09:58:42 Acoustica Mixcraft v2.0 0%
2011-09-08 09:58:42 Acoustica Mixcraft v2.0 b25 0%
2011-09-08 09:58:42 Acoustica Mixcraft v2.01.41 0%
2011-09-08 09:58:42 Acoustica Mixcraft v2.50.45 100%
2012-12-11 23:26:39 ACOUSTICA MIXCRAFT 2.50.50. 0%
2012-12-11 23:26:40 Acoustica Mixcraft 5 0%
2012-12-11 23:26:44 Acoustica Mixcraft v5.0.130 0%
2012-12-11 23:26:46 Acoustica Mixcraft v5.1.149 0%
2012-12-11 23:26:48 Acoustica Mixcraft v5.2.151 100%
2012-12-11 23:26:50 Acoustica Mixcraft v6.0.180 0%
2012-12-11 23:26:53 Acoustica Mixcraft v6.0.191 99%
2012-12-11 23:26:55 Acoustica Mixcraft v6.0.196 0%
2012-12-11 23:26:57 Acoustica Mixcraft v6.0.199 0%
2012-12-11 23:26:59 Acoustica Mixcraft v6.1.201 57%
2012-12-11 23:28:50 Acoustica-Mixcraft-4 0%
2009-10-17 06:18:15 Acoustica Mixcraft 2.0...b25 SERIAL 76%
2009-10-22 23:27:11 Acoustica Mixcraft 1.10 Build12 0%
2009-10-22 23:27:11 Acoustica Mixcraft 1.10 Build13 0%
2009-10-22 23:27:11 Acoustica Mixcraft 1.10 Build15 0%
2009-10-22 23:27:11 Acoustica Mixcraft 3 (Works) 44%
2009-10-22 23:27:11 Acoustica Mixcraft 3.0 Build22 0%
2009-10-22 23:27:11 Acoustica Mixcraft 3.1 - WORKS 100% 13%
2009-10-22 23:27:11 Acoustica Mixcraft V 2.01 Biuld 38 0%
2009-10-22 23:27:11 Acoustica Mixcraft V4 Canavar 0%
2011-09-08 09:58:40 Acoustica Mixcraft 1.10 build12 0%
2011-09-08 09:58:40 Acoustica Mixcraft 1.10 build15 0%
2011-09-08 09:58:42 Acoustica Mixcraft v1.10 build12 by FFF 0%
2011-09-08 09:58:42 Acoustica Mixcraft v1.10 build13 0%
2011-09-08 09:58:42 Acoustica Mixcraft v1.10 build15 0%
2009-10-17 06:18:15 Acoustica Mixcraft Recording Studio V1.10-CRD 9%
2009-10-17 06:18:15 Acoustica Mixcraft Recording Studio V2.01 B38 23%
2009-10-17 06:18:15 Acoustica Mixcraft Recording Studio V2.51 B55 55%
2009-10-22 23:27:11 Acoustica Mixcraft Recording Studio 1.10 63%
2009-10-22 23:27:11 Acoustica Mixcraft Recording Studio 2.01.b38 0%
2009-10-22 23:27:11 Acoustica Mixcraft Recording Studio V2.51 B53 53%
2009-10-22 23:27:11 Acoustica Mixcraft Recording Studio V2.51 B54 0%
2009-10-22 23:27:11 Acoustica Mixcraft Recording Studio V2.51 B55 68%
2011-09-08 09:58:40 Acoustica Mixcraft Recording Studio 1.10 0%
2011-09-08 09:58:40 Acoustica Mixcraft Recording Studio 2 0%
2011-09-08 09:58:40 Acoustica Mixcraft Recording Studio 2.0.28 0%
2011-09-08 09:58:40 Acoustica Mixcraft Recording Studio 2.0.b25 0%
2011-09-08 09:58:40 Acoustica Mixcraft Recording Studio 2.01.b38 0%
2011-09-08 09:58:40 Acoustica Mixcraft Recording Studio v1.10 0%
2009-10-17 06:19:27 Bar Code Pro V6.02 48%
2009-10-17 06:20:25 Code Co-op V4.5c 39%
2009-10-17 06:20:25 Code VBA V2.0 41%
2009-10-17 06:20:25 CODE-VB V3.03 23%
2009-10-22 23:44:48 Bar Code 128 3.0 0%
2009-10-22 23:44:48 Bar Code 3 Of 9 2.7 0%
2009-10-22 23:44:48 Bar Code 3 Of 9 3.0b 0%
2009-10-22 23:44:48 Bar Code Pro V6.02 0%
2009-10-22 23:44:48 Bar Code Pro V6.11 0%
2009-10-22 23:45:53 Code Co-op 4.0h 27%
2009-10-22 23:45:53 Code Co-op 4.1 44%
2009-10-22 23:45:53 Code Co-op 4.1a 0%
2009-10-22 23:45:53 Code Co-op 4.2 0%
2011-09-08 10:18:52 Bar Code Pro UPC v1.0 mac 54%
2011-09-08 10:18:52 Bar Code 3 of 9 v3.0b 0%
2011-09-08 10:18:52 Bar Code Pro 6.02 0%
2011-09-08 10:18:52 Bar Code 3 of 9 v2.7 0%
2011-09-08 10:18:52 Bar Code 3 of 9 3.0b 0%
2011-09-08 10:18:48 Bar Code 128 v3.0 0%
2011-09-08 10:18:48 Bar Code 3 of 9 2.7 55%
2011-09-08 10:18:48 Bar Code 128 3.0 0%
2011-09-08 10:27:32 Code 55%
2011-09-08 10:27:32 Code co-op 3.1 0%
2011-09-08 10:27:32 Code Co-Op 3.3b 0%
2011-09-08 10:27:32 Code Co-op 4.0h 0%
2011-09-08 10:27:32 Code Co-op 4.1 60%
2011-09-08 10:27:32 Code Co-op 4.1a 0%
2011-09-08 10:27:32 Code Co-op 4.2 57%